User: anonymous   Login
Location: Unspecified
(0.0000°N, 0.0000°E)
Time: 02:51:41
(UTC+00:00)
Language:

OPTUS 1C - Orbit

View from above orbital plane
View from above orbital plane
View from above satellite
View from above satellite

Ground track
Ground track

The orbit data is extracted from the following two-line orbital elements,

1 27831U 03028B   16340.71598369 -.00000139  00000-0  00000+0 0  9999
2 27831   0.0589 131.5768 0003762 103.6859 253.4588  1.00271209 49422
Epoch (UTC): 05 December 2016 17:11:00
Eccentricity: 0.0003762
inclination: 0.0589°
perigee height: 35770 km
apogee height: 35802 km
right ascension of ascending node: 131.5768°
argument of perigee: 103.6859°
revolutions per day: 1.00271209
mean anomaly at epoch: 253.4588°
orbit number at epoch: 4942

The dashed part of the orbit path shows where the satellite is in the earth's shadow,  

DLR